Location: Malanoce
(44.2500°N, 7.4667°E)
Time: 10:38:00
(UTC+00:00)

Daily predictions for brighter satellites

Satellite Brightness Start Highest point End
(mag) Time Altitude Azimuth Time Altitude Azimuth Time Altitude Azimuth
CZ-4C R/B 3.7 16:26:38 10° W 16:30:17 22° NNW 16:34:42 10° NNE
ATLAS 2AS CENTAUR R/B 4.3 16:28:58 10° NNW 16:33:02 16° NNE 16:37:04 10° NE
YAOGAN 1 4.3 16:32:54 10° E 16:34:35 12° ENE 16:36:17 10° NE
UNK 3.8 16:31:40 10° NNE 16:36:16 63° ESE 16:40:49 10° S
SJ 16-02 3.1 16:34:46 10° ESE 16:36:39 13° E 16:38:31 10° ENE
DNEPR-1 R/B 4.4 16:33:21 10° NW 16:37:52 66° WSW 16:43:09 10° SSE
ATLAS CENTAUR R/B 3.7 16:43:00 10° NW 16:43:52 11° NW 16:44:44 10° NNW
SAR-Lupe-4 3.6 16:41:26 10° SSE 16:44:56 55° ENE 16:48:27 10° N
ARIANE 5 R/B 2.5 16:40:39 10° SSE 16:45:31 58° ENE 16:50:26 10° N
Cosmos 1441 Rocket 4.4 16:44:07 10° NNW 16:47:17 41° W 16:50:28 10° SSW
Cosmos 1833 Rocket 3.1 16:42:46 10° NNW 16:48:25 71° WSW 16:54:00 10° SSE
USA 215 3.3 16:46:36 10° ESE 16:53:07 80° NE 16:59:41 10° NW
Meteor 2-12 Rocket 4.5 16:48:09 10° N 16:54:09 57° ENE 17:00:05 10° SSE
IRS-P3 4.2 16:51:08 10° SE 16:56:16 52° ENE 17:01:27 10° N
Timation 1 Rocket 4.4 16:50:59 10° NNW 16:56:51 54° ENE 17:02:40 10° SE
Okean 2 Rocket 4.4 16:54:40 10° SE 16:57:44 19° E 17:00:34 11° NE
MOS 1 Rocket 3.5 16:54:29 10° SE 16:58:29 39° ENE 17:02:38 10° N
SAR-Lupe-3 3.8 16:56:39 10° NNE 16:59:16 57° ESE 17:01:52 10° S
Timation 2 Rocket 4.2 16:53:35 10° SSW 17:00:23 70° ESE 17:07:13 10° NNE
ATLAS 5 CENTAUR R/B 2.4 16:57:38 10° NW 17:02:08 62° SW 17:07:41 10° SSE
SJ-6F 4.3 17:03:07 10° SSE 17:06:57 57° ENE 17:10:48 10° N
Cosmos 407 Rocket 3.4 17:03:20 10° SSW 17:08:33 83° ESE 17:13:42 10° NNE
Cosmos 2061 Rocket 4.4 17:03:30 10° SSW 17:09:47 69° W 17:16:01 10° N
RESURS DK-1 2.2 17:06:53 10° NNW 17:10:53 63° ENE 17:14:49 10° SE
Cosmos 1602 3.7 17:08:13 10° N 17:11:03 32° ENE 17:13:50 10° SE
CZ-2D R/B 3.0 17:11:42 10° S 17:14:50 69° W 17:17:59 10° NNW
ISS -3.4 17:11:59 10° WSW 17:15:17 57° NNW 17:17:12 22° NE
Cosmos 1869 3.0 17:12:24 10° S 17:15:55 82° W 17:19:26 10° N
USA 281 4.5 17:15:07 17° ENE 17:17:04 19° NE 17:21:26 10° N
SPOT 1/Viking Rocket 3.7 17:12:32 10° SE 17:17:27 47° ENE 17:22:25 10° N
SJ-12 4.1 17:17:50 10° S 17:21:37 65° W 17:25:23 10° NNW
Cosmos 1464 Rocket 4.1 17:17:05 10° SSE 17:23:08 52° E 17:29:09 10° NNE
COSMO-SKYMED 1 3.0 17:21:26 18° NE 17:23:56 34° E 17:27:41 10° SSE
AQUARIUS 4.2 17:20:57 10° S 17:25:21 81° WSW 17:29:48 10° NNW
SL-12 R/B(2) 4.4 17:18:53 10° SW 17:26:46 84° NW 17:36:28 10° NE
BREEZE-M DEB (TANK) 2.6 17:27:17 10° W 17:29:46 56° NNW 17:32:21 24° ENE
Cosmos 1400 Rocket 3.0 17:26:17 10° SSE 17:29:52 40° E 17:31:12 29° NE
Cosmos 540 Rocket 3.5 17:25:48 10° NNW 17:30:57 84° WSW 17:36:03 10° SSE
Spot 4 Rocket 4.1 17:26:20 10° SE 17:31:15 53° ENE 17:36:13 10° N
Cosmos 1812 2.3 17:32:26 10° SSW 17:35:19 65° W 17:37:34 15° N
Cosmos 2034 Rocket 4.3 17:30:37 10° SSE 17:36:24 43° E 17:42:15 10° NNE
Cosmos 1763 Rocket 3.9 17:31:15 10° NNW 17:36:25 64° WSW 17:41:27 10° S
Cosmos 2151 Rocket 3.5 17:35:59 10° S 17:40:26 68° E 17:44:55 10° NNE
Cosmos 44 Rocket 3.5 17:38:59 10° SW 17:43:43 66° NW 17:47:06 20° NNE
Cosmos 2058 2.7 17:40:11 10° N 17:44:10 87° W 17:48:08 10° S
Cosmos 1943 Rocket 2.8 17:42:59 10° SW 17:48:31 56° WNW 17:54:01 10° NNE
Okean 1 Rocket 3.1 17:46:03 10° S 17:50:20 55° E 17:51:43 38° NE
CZ-2D R/B 3.4 17:46:16 10° SSE 17:50:23 87° WSW 17:54:37 10° NNW
SJ-7 3.9 17:46:46 10° SSE 17:50:25 73° ENE 17:54:06 10° N
SKYMED 2 3.6 17:46:14 10° N 17:50:35 82° WNW 17:54:55 10° SSW
IRAS Rocket 4.1 17:45:11 10° SSE 17:50:44 77° ENE 17:56:17 10° NNW
Sich 1 Rocket 3.6 17:46:56 10° S 17:51:22 58° E 17:53:29 29° NNE
PSLV R/B 3.2 17:47:58 10° SSE 17:51:59 68° ENE 17:56:00 10° N
Helios 1A Rocket 2.2 17:51:57 73° ENE 17:52:10 77° ESE 17:55:32 10° S
Cosmos 1092 Rocket 4.3 17:47:07 10° N 17:52:55 39° ENE 17:54:59 30° ESE
Cosmos 2082 Rocket 2.1 17:49:32 10° NNW 17:55:11 89° ENE 18:00:48 10° SSE
Cosmos 1072 Rocket 4.5 17:50:10 10° S 17:56:20 83° W 18:02:29 10° N
Cosmos 2278 Rocket 2.9 17:51:50 10° SW 17:57:19 51° WNW 18:02:47 10° NNE
Meteor 2-1 Rocket 4.4 17:51:42 10° S 17:57:24 53° E 18:02:22 14° NNE
NOAA 6 4.0 17:53:36 10° SSE 17:58:39 61° ENE 18:03:43 10° N
Cosmos 2026 Rocket 4.1 17:53:37 10° N 17:59:31 48° ENE 18:05:26 10° SSE
Aureole 3 Rocket 4.1 17:57:25 10° SW 18:00:09 30° WNW 18:02:59 10° NNW
BREEZE-M DEB (TANK) 3.4 17:58:36 10° W 18:01:29 63° NNW 18:03:16 39° NE
BREEZE-M DEB (TANK) 3.9 17:59:57 10° W 18:02:39 41° N 18:04:09 32° NE
Geosat 4.0 18:04:10 51° ENE 18:04:32 52° ENE 18:09:24 10° NNW
BREEZE-M DEB (TANK) 4.2 17:50:22 10° WNW 18:05:54 88° SSW 18:07:57 42° ESE
Cosmos 2369 Rocket 3.9 18:02:52 10° SSE 18:04:20 17° SSE 18:04:20 17° SSE
Cosmos 2251 Rocket 4.1 18:02:49 10° SW 18:07:59 56° WNW 18:12:38 13° NNE
YAOGAN 1 2.6 18:05:36 10° S 18:09:50 74° WSW 18:14:07 10° NNW
Cosmos 371 Rocket 3.1 18:06:43 10° SSW 18:11:31 90° ESE 18:12:52 48° NNE
Cosmos 304 Rocket 3.7 18:07:52 10° SSW 18:12:37 85° WNW 18:13:57 47° NNE
SL-19 R/B 4.2 18:08:48 10° S 18:14:01 76° WSW 18:19:15 10° NNW
SJ 16-02 1.7 18:09:57 10° SSW 18:14:12 61° WNW 18:15:42 37° N
Cosmos 841 Rocket 3.3 18:10:56 10° NNW 18:16:13 76° ENE 18:17:16 56° SE
Nadezhda 4 Rocket 4.3 18:15:19 10° NNW 18:21:32 66° W 18:27:40 10° S
Resurs 1-3 4.1 18:17:37 10° S 18:21:50 58° W 18:26:06 10° NNW
ATLAS 2AS CENTAUR R/B 3.3 18:19:48 10° NNW 18:25:35 37° NNE 18:25:35 37° NNE
COSMOS 2406 3.1 18:22:15 10° NNW 18:27:58 88° ENE 18:29:08 59° SSE
Cosmos 1656 Rocket 3.5 18:22:48 10° SSW 18:28:20 79° ESE 18:28:33 78° E
Cosmos 1627 Rocket 4.3 18:23:54 10° N 18:30:04 79° E 18:36:15 10° S
Okean 2 Rocket 4.3 18:31:15 10° SSW 18:35:22 39° WNW 18:37:52 21° NNW
Resurs 01 Rocket 4.2 18:46:22 12° NNW 18:46:22 12° NNW 18:46:43 10° NNW
Cosmos 2344 3.9 18:36:23 10° NW 18:44:28 75° NE 18:47:32 50° ESE
Meteor 2-3 Rocket 4.0 18:41:42 10° NNW 18:47:21 67° W 18:49:59 32° S
ISS -0.5 18:49:45 10° WNW 18:50:07 12° WNW 18:50:07 12° WNW
USA 281 3.4 19:02:00 58° N 19:02:00 58° N 19:07:13 10° NNW
Cosmos 1634 Rocket 4.5 19:02:45 10° SSW 19:17:45 - N 19:07:38 53° SW
